SGDC

Last updated on Wed Sep 09 2026 00:03:01 GMT+0000 (Coordinated Universal Time)

1 42692U 17023B 26250.24587189 -.00000268 00000+0 00000+0 0 9990 2 42692 0.0148 86.5869 0002214 92.7410 180.6685 1.00271575 34225
UTC large
Height (km)
Speed (km/s)
/
Latitude / Longitude
Inclination (degrees)
Orbital Period (minutes)
Azimuth
Elevation
Range (km)
Doppler Factor

Next 0 passes for location: London (51.5072 / 0.1276)

No passes found over London.
SGDC